• In Austria
  • List of Countries
  • For 7 days
  • Water Temperature
  • Satellite Maps
  • Weather Map
  • News
  • Weather Widgets
  • user-avatar
    Login

    Hourly Weather Mendoza

    Today, 26 May, Saturday

    Time Temperature Precipitation Wind Pressure Humidity
    00:00 +13°C° 0 mm 3 mps 695 mmHg 48%
    01:00 +13°C° 0 mm 3 mps 694 mmHg 49%
    02:00 +13°C° 0 mm 3 mps 694 mmHg 50%
    03:00 +12°C° 0 mm 3 mps 694 mmHg 50%
    04:00 +12°C° 0 mm 3 mps 694 mmHg 51%
    05:00 +12°C° 0 mm 3 mps 694 mmHg 52%
    06:00 +12°C° 0 mm 3 mps 694 mmHg 52%
    07:00 +12°C° 0 mm 3 mps 694 mmHg 53%
    08:00 +14°C° 0 mm 3 mps 694 mmHg 49%
    09:00 +17°C° 0 mm 3 mps 694 mmHg 45%
    10:00 +19°C° 0 mm 3 mps 695 mmHg 42%
    11:00 +20°C° 0 mm 3 mps 695 mmHg 37%
    12:00 +21°C° 0 mm 3 mps 694 mmHg 32%
    13:00 +24°C° 0 mm 3 mps 694 mmHg 27%
    14:00 +22°C° 0 mm 3 mps 695 mmHg 28%
    15:00 +22°C° 0 mm 3 mps 695 mmHg 28%
    16:00 +21°C° 0 mm 3 mps 695 mmHg 29%
    17:00 +20°C° 0 mm 3 mps 696 mmHg 31%
    18:00 +19°C° 0 mm 3 mps 697 mmHg 32%
    19:00 +18°C° 0 mm 4 mps 697 mmHg 34%
    20:00 +17°C° 0 mm 4 mps 697 mmHg 37%
    21:00 +15°C° 0 mm 4 mps 698 mmHg 40%
    22:00 +14°C° 0 mm 3 mps 698 mmHg 43%
    23:00 +13°C° 0 mm 3 mps 698 mmHg 45%

    Tomorrow, 27 May, Sunday

    Time Temperature Precipitation Wind Pressure Humidity
    00:00 +13°C° 0 mm 3 mps 698 mmHg 46%
    01:00 +12°C° 0 mm 3 mps 698 mmHg 48%
    02:00 +12°C° 0 mm 3 mps 697 mmHg 48%
    03:00 +11°C° 0 mm 3 mps 697 mmHg 49%
    04:00 +11°C° 0 mm 3 mps 697 mmHg 50%
    05:00 +12°C° 0 mm 2 mps 697 mmHg 50%
    06:00 +12°C° 0 mm 2 mps 697 mmHg 50%
    07:00 +12°C° 0 mm 2 mps 697 mmHg 50%
    08:00 +14°C° 0 mm 2 mps 697 mmHg 47%
    09:00 +16°C° 0 mm 2 mps 697 mmHg 43%
    10:00 +18°C° 0 mm 3 mps 697 mmHg 39%
    11:00 +19°C° 0 mm 3 mps 696 mmHg 39%
    12:00 +20°C° 0 mm 3 mps 696 mmHg 38%
    13:00 +21°C° 0 mm 3 mps 695 mmHg 37%
    14:00 +20°C° 0 mm 3 mps 695 mmHg 38%
    15:00 +20°C° 0 mm 3 mps 694 mmHg 39%
    16:00 +20°C° 0 mm 3 mps 694 mmHg 39%
    17:00 +19°C° 0 mm 3 mps 694 mmHg 43%
    18:00 +17°C° 0 mm 2 mps 694 mmHg 47%
    19:00 +16°C° 0 mm 2 mps 694 mmHg 51%
    20:00 +16°C° 0 mm 2 mps 694 mmHg 51%
    21:00 +16°C° 0 mm 2 mps 694 mmHg 50%
    22:00 +14°C° 0 mm 3 mps 694 mmHg 49%
    23:00 +14°C° 0 mm 3 mps 693 mmHg 49%

    Day after tomorrow, 28 May, Monday

    Time Temperature Precipitation Wind Pressure Humidity
    00:00 +14°C° 0 mm 3 mps 693 mmHg 50%
    01:00 +14°C° 0 mm 3 mps 692 mmHg 50%
    02:00 +13°C° 0 mm 3 mps 692 mmHg 51%
    03:00 +13°C° 0 mm 3 mps 692 mmHg 51%
    04:00 +13°C° 0 mm 3 mps 692 mmHg 52%
    05:00 +13°C° 0 mm 3 mps 692 mmHg 52%
    06:00 +13°C° 0 mm 4 mps 693 mmHg 52%
    07:00 +13°C° 0 mm 4 mps 693 mmHg 51%
    08:00 +15°C° 0 mm 4 mps 694 mmHg 46%
    09:00 +18°C° 0 mm 4 mps 694 mmHg 42%
    10:00 +20°C° 0 mm 4 mps 695 mmHg 37%
    11:00 +21°C° 0 mm 4 mps 694 mmHg 34%
    12:00 +22°C° 0 mm 4 mps 694 mmHg 32%
    13:00 +23°C° 0 mm 4 mps 694 mmHg 29%
    14:00 +22°C° 0 mm 4 mps 693 mmHg 31%
    15:00 +22°C° 0 mm 4 mps 693 mmHg 34%
    16:00 +21°C° 0 mm 3 mps 693 mmHg 36%
    17:00 +20°C° 0 mm 3 mps 693 mmHg 41%
    18:00 +18°C° 0 mm 3 mps 693 mmHg 46%
    19:00 +17°C° 0 mm 3 mps 693 mmHg 50%
    20:00 +17°C° 0 mm 3 mps 693 mmHg 51%
    21:00 +16°C° 0 mm 3 mps 693 mmHg 51%
    22:00 +16°C° 0 mm 3 mps 693 mmHg 52%
    23:00 +16°C° 0 mm 3 mps 693 mmHg 52%

    29 May, Tuesday

    Time Temperature Precipitation Wind Pressure Humidity
    00:00 +14°C° 0 mm 3 mps 693 mmHg 52%
    01:00 +14°C° 0 mm 3 mps 692 mmHg 52%
    02:00 +14°C° 0 mm 3 mps 692 mmHg 52%
    03:00 +14°C° 0 mm 3 mps 692 mmHg 53%
    04:00 +13°C° 0 mm 3 mps 692 mmHg 53%
    05:00 +13°C° 0 mm 3 mps 693 mmHg 51%
    06:00 +13°C° 0 mm 3 mps 693 mmHg 50%
    07:00 +13°C° 0 mm 3 mps 694 mmHg 48%
    08:00 +15°C° 0 mm 4 mps 695 mmHg 41%
    09:00 +19°C° 0 mm 4 mps 696 mmHg 35%
    10:00 +21°C° 0 mm 5 mps 697 mmHg 29%
    11:00 +20°C° 0.1 mm 6 mps 697 mmHg 37%
    12:00 +20°C° 0.1 mm 7 mps 697 mmHg 46%
    13:00 +18°C° 0.1 mm 8 mps 697 mmHg 55%
    14:00 +17°C° 0.2 mm 7 mps 697 mmHg 53%
    15:00 +16°C° 0.2 mm 6 mps 698 mmHg 52%
    16:00 +15°C° 0.2 mm 5 mps 698 mmHg 50%
    17:00 +14°C° 0.2 mm 5 mps 699 mmHg 48%
    18:00 +13°C° 0.2 mm 4 mps 700 mmHg 47%
    19:00 +13°C° 0.2 mm 3 mps 700 mmHg 45%
    20:00 +12°C° 0.2 mm 3 mps 701 mmHg 44%
    21:00 +13°C° 0.2 mm 2 mps 701 mmHg 44%
    22:00 +12°C° 0.2 mm 2 mps 701 mmHg 44%
    23:00 +12°C° 0.1 mm 2 mps 701 mmHg 45%

    30 May, Wednesday

    Time Temperature Precipitation Wind Pressure Humidity
    00:00 +10°C° 0.1 mm 2 mps 701 mmHg 47%
    01:00 +10°C° 0.1 mm 2 mps 701 mmHg 48%
    02:00 +9°C° 0.1 mm 2 mps 700 mmHg 50%
    03:00 +8°C° 0.1 mm 2 mps 700 mmHg 52%
    04:00 +8°C° 0.1 mm 3 mps 700 mmHg 53%
    05:00 +7°C° 0 mm 3 mps 700 mmHg 55%
    06:00 +7°C° 0 mm 3 mps 701 mmHg 57%
    07:00 +7°C° 0 mm 3 mps 701 mmHg 59%
    08:00 +8°C° 0 mm 3 mps 701 mmHg 56%
    09:00 +9°C° 0 mm 3 mps 701 mmHg 52%
    10:00 +10°C° 0 mm 3 mps 701 mmHg 49%
    11:00 +11°C° 0 mm 3 mps 701 mmHg 46%
    12:00 +11°C° 0 mm 3 mps 701 mmHg 44%
    13:00 +12°C° 0 mm 3 mps 700 mmHg 41%
    14:00 +11°C° 0 mm 3 mps 700 mmHg 42%
    15:00 +11°C° 0 mm 3 mps 700 mmHg 42%
    16:00 +11°C° 0 mm 3 mps 701 mmHg 42%
    17:00 +10°C° 0 mm 3 mps 701 mmHg 45%
    18:00 +9°C° 0 mm 3 mps 702 mmHg 47%
    19:00 +8°C° 0 mm 3 mps 702 mmHg 50%
    20:00 +8°C° 0 mm 3 mps 703 mmHg 51%
    21:00 +7°C° 0 mm 3 mps 703 mmHg 51%
    22:00 +7°C° 0 mm 3 mps 703 mmHg 52%
    23:00 +5°C° 0 mm 3 mps 703 mmHg 54%

    31 May, Thursday

    Time Temperature Precipitation Wind Pressure Humidity
    00:00 +5°C° 0 mm 3 mps 703 mmHg 55%
    01:00 +4°C° 0 mm 3 mps 702 mmHg 57%
    02:00 +4°C° 0 mm 3 mps 702 mmHg 59%
    03:00 +3°C° 0 mm 3 mps 702 mmHg 62%
    04:00 +3°C° 0 mm 3 mps 702 mmHg 64%
    05:00 +3°C° 0 mm 3 mps 702 mmHg 65%
    06:00 +3°C° 0 mm 3 mps 702 mmHg 66%
    07:00 +2°C° 0 mm 3 mps 702 mmHg 67%
    08:00 +4°C° 0 mm 3 mps 702 mmHg 63%
    09:00 +5°C° 0 mm 3 mps 701 mmHg 59%
    10:00 +7°C° 0 mm 3 mps 701 mmHg 55%
    11:00 +8°C° 0 mm 3 mps 700 mmHg 53%
    12:00 +9°C° 0 mm 3 mps 700 mmHg 51%
    13:00 +10°C° 0 mm 3 mps 699 mmHg 49%
    14:00 +9°C° 0 mm 3 mps 699 mmHg 51%
    15:00 +9°C° 0 mm 3 mps 699 mmHg 52%
    16:00 +9°C° 0 mm 2 mps 699 mmHg 53%
    17:00 +8°C° 0 mm 3 mps 700 mmHg 56%
    18:00 +7°C° 0 mm 3 mps 700 mmHg 59%
    19:00 +5°C° 0 mm 3 mps 700 mmHg 62%
    20:00 +5°C° 0 mm 3 mps 700 mmHg 63%
    21:00 +5°C° 0 mm 3 mps 701 mmHg 63%
    22:00 +5°C° 0 mm 3 mps 701 mmHg 64%
    23:00 +4°C° 0 mm 3 mps 700 mmHg 64%
    Show more